FW1267 Weather Reports


time (UTC)temp
C
wind
direction
speed
KPH
gust
KPH
rain 1hr
cm
rain 24hr
cm
rain mn
cm
humidity
%
barometer
mb
20260504050008 9 252 1.6 9.7 0.00 0.00 0.00 58 1014.8
20260504044515 10 261 0.0 4.8 0.00 0.00 0.00 57 1014.8
20260504043009 10 271 0.0 6.4 0.00 0.00 0.00 56 1014.8
20260504041504 10 320 0.0 3.2 0.00 0.00 0.00 56 1014.8
20260504040105 10 299 0.0 4.8 0.00 0.00 0.00 55 1014.7
20260504034610 10 217 0.0 4.8 0.00 0.00 0.00 56 1014.6
20260504033127 10 216 0.0 0.0 0.00 0.00 0.00 55 1014.5
20260504031603 10 216 1.6 8.0 0.00 0.00 0.00 53 1014.4
20260504030101 11 292 0.0 3.2 0.00 0.00 0.00 52 1014.4
20260504024557 11 269 1.6 3.2 0.00 0.00 0.00 51 1014.3
20260504023104 11 212 0.0 3.2 0.00 0.00 0.00 50 1014.2
20260504021557 11 269 0.0 4.8 0.00 0.00 0.00 49 1014.4
20260504020100 11 301 0.0 3.2 0.00 0.00 0.00 49 1014.3
20260504014555 11 298 0.0 0.0 0.00 0.00 0.00 48 1014.3
20260504013108 12 299 0.0 0.0 0.00 0.00 0.00 47 1014.0
20260504011556 12 299 0.0 0.0 0.00 0.00 0.00 46 1013.9
20260504010110 12 299 0.0 3.2 0.00 0.00 0.00 45 1013.9
20260504004617 12 299 0.0 3.2 0.00 0.00 0.00 46 1013.7
20260504003053 12 299 0.0 3.2 0.00 0.00 0.00 44 1013.5
20260504001601 12 5 0.0 1.6 0.00 0.00 0.00 44 1013.4
20260504000052 13 5 0.0 8.0 0.00 0.00 0.00 45 1013.4
20260503234552 13 330 0.0 6.4 0.00 0.00 0.00 44 1013.2
20260503233051 13 329 0.0 3.2 0.00 0.00 0.00 43 1013.1
20260503231551 14 340 0.0 4.8 0.00 0.00 0.00 43 1013.0
20260503230057 14 292 0.0 11.3 0.00 0.00 0.00 41 1013.0
20260503224549 15 53 0.0 4.8 0.00 0.00 0.00 41 1012.9
20260503223056 15 313 0.0 8.0 0.00 0.00 0.00 38 1013.0
20260503221553 16 279 1.6 8.0 0.00 0.00 0.00 36 1013.0
20260503220049 16 305 1.6 11.3 0.00 0.00 0.00 36 1012.9
20260503214547 16 315 0.0 12.9 0.00 0.00 0.00 37 1013.0
20260503213100 17 196 0.0 8.0 0.00 0.00 0.00 36 1013.0
20260503211546 17 278 1.6 4.8 0.00 0.00 0.00 35 1012.8
20260503210055 17 67 1.6 6.4 0.00 0.00 0.00 34 1012.9
20260503204551 17 309 1.6 17.7 0.00 0.00 0.00 36 1012.8
20260503203043 17 343 1.6 9.7 0.00 0.00 0.00 38 1012.9
20260503201543 16 320 4.8 17.7 0.00 0.00 0.00 37 1013.1
20260503200046 16 257 0.0 4.8 0.00 0.00 0.00 38 1013.2
20260503194546 17 236 0.0 14.5 0.00 0.00 0.00 34 1013.5
20260503193050 17 316 1.6 8.0 0.00 0.00 0.00 35 1013.6
20260503191538 17 341 1.6 8.0 0.00 0.00 0.00 35 1013.9
20260503190038 16 9 3.2 8.0 0.00 0.00 0.00 39 1014.0
20260503184546 15 333 1.6 19.3 0.00 0.00 0.00 38 1014.2
20260503183047 16 320 4.8 12.9 0.00 0.00 0.00 35 1014.3
20260503181532 16 337 3.2 9.7 0.00 0.00 0.00 38 1014.4
20260503180037 16 348 1.6 6.4 0.00 0.00 0.00 40 1014.3
20260503174527 15 321 1.6 6.4 0.00 0.00 0.00 41 1014.5
20260503173037 14 301 1.6 12.9 0.00 0.00 0.00 43 1014.6
20260503171525 14 344 3.2 9.7 0.00 0.00 0.00 40 1014.7
20260503081512 5 32 0.0 0.0 0.00 0.00 0.00 74 1012.7
20260503071511 5 312 0.0 3.2 0.00 0.03 0.00 75 1012.6